Вернуться в каталог

BLOCK DM-SL R/B

АктивенGTO
NORAD 28138·ROCKET BODY· XX

Запущен Jan 11, 2004 с Sea Launch Platform

Loading…

TLE

УстаревающийSource: Space-Track

Эпоха: Sep 14, 2026, 14:10 UTC

1 28138U 04001B   26257.59050980 -.00000065  00000-0  14708-2 0  9999
2 28138   0.8062 328.8618 7143209  59.5494 356.4182  2.24738268186228

Отслеживайте BLOCK DM-SL R/B в реальном времени с AllMySat

Download on the App Store